Home > Weather > Key West > Past weeks

Flag for U.S.A. Weather for the Past 2 Weeks in Key West, Florida, U.S.A.

Now
61 °F

Passing clouds.


Feels Like: 61 °F
Forecast: 60 / 67 °F
Wind: 14 mph from Northwest

Location: Key West International Airport

Current Time: Feb 7, 2016 at 7:24:14 PM

Latest Report: Feb 7, 2016 at 5:53 PM


Visibility: 10 mi

Pressure: 30.09 "Hg

Humidity: 67%

Dew point: 50 °F

Location of Key WestLocation

Historic Weather in Key West — Graph

°F

Key West Temperature Yesterday

Maximum temperature yesterday: 71 °F (at 10:53 AM)
Minimum temperature yesterday: 64 °F (at 2:53 AM)
Average temperature yesterday: 66 °F

High & Low Weather Summary for the Past Weeks

 TemperatureHumidityPressure
High81 °F (Feb 4, 12:53 PM)100% (Jan 27, 10:53 PM)30.26 "Hg (Jan 27, 10:53 PM)
Low55 °F (Jan 25, 3:53 AM)47% (Jan 29, 4:53 PM)29.80 "Hg (Jan 28, 3:53 PM)
Average70 °F82%30.06 "Hg
* Reported Jan 23 4:53 PM — Feb 7 4:53 PM, Key West, Weather by CustomWeather, © 2016

Note: Actual official high and low records may vary slightly from our data, if they occured in-between our weather recording intervals... More about our weather records

Advertising

Key West Weather History for the Previous 24 Hours

 ConditionsComfort  
Time TempWeatherWind HumidityBarometerVisibility
4:53 PM
Sun, Feb 7
63 °FPassing clouds.17 mph68%30.07 "Hg10 mi
3:53 PM65 °FPassing clouds.18 mph63%30.07 "Hg10 mi
2:53 PM65 °FScattered clouds.18 mph66%30.07 "Hg10 mi
1:53 PM66 °FScattered clouds.21 mph65%30.07 "Hg10 mi
12:53 PM66 °FPassing clouds.21 mph63%30.09 "Hg10 mi
11:53 AM65 °FCloudy.18 mph68%30.10 "Hg10 mi
10:53 AM62 °FOvercast.17 mph73%30.11 "Hg10 mi
9:53 AM62 °FCloudy.20 mph73%30.10 "Hg10 mi
8:53 AM59 °FMore clouds than sun.23 mph84%30.08 "Hg10 mi
7:53 AM58 °FLight rain. Cloudy.18 mph97%30.05 "Hg8 mi
6:53 AM62 °FPartly cloudy.9 mph86%30.01 "Hg10 mi
5:53 AM63 °FPassing clouds.9 mph84%29.99 "Hg10 mi
4:53 AM64 °FOvercast.13 mph84%29.99 "Hg10 mi
3:53 AM64 °FMostly cloudy.8 mph87%29.99 "Hg10 mi
2:53 AM62 °FMostly cloudy.13 mph93%30.00 "Hg10 mi
1:53 AM65 °FMostly cloudy.13 mph85%30.02 "Hg10 mi
12:53 AM65 °FLight rain. Mostly cloudy.14 mph87%30.04 "Hg10 mi
11:53 PM
Sat, Feb 6
65 °FLight rain. Overcast.14 mph87%30.04 "Hg10 mi
11:02 PM65 °FLight rain. Mostly cloudy.12 mph91%30.07 "Hg10 mi
9:53 PM65 °FMostly cloudy.13 mph94%30.07 "Hg10 mi
8:53 PM64 °FPassing clouds.13 mph97%30.07 "Hg10 mi
7:53 PM64 °FMostly cloudy.17 mph100%30.06 "Hg10 mi
Weather by CustomWeather, © 2016

See weather overviewHow to use our weather pages